owner,sensor,date,latitude,longitude,vertical_datum,sea_water_temperature,qcFlag 
DISL,ioos:station:DISL:MBLA:1,2013-07-01T00:02:00Z,30.4367,-88.0117,0.5,29.26,2 
DISL,ioos:station:DISL:MBLA:1,2013-07-01T00:05:00Z,30.4367,-88.0117,0.5,29.73,2 
DISL,ioos:station:DISL:MBLA:1,2013-07-01T00:07:00Z,30.4367,-88.0117,0.5,29.9,2 
DISL,ioos:station:DISL:MBLA:1,2013-07-01T00:10:00Z,30.4367,-88.0117,0.5,30.41,2 
DISL,ioos:station:DISL:MBLA:1,2013-07-01T00:12:00Z,30.4367,-88.0117,0.5,31.06,2 
DISL,ioos:station:DISL:MBLA:1,2013-07-01T00:15:00Z,30.4367,-88.0117,0.5,32.68,2 
DISL,ioos:station:DISL:MBLA:1,2013-07-01T01:02:00Z,30.4367,-88.0117,0.5,29.45,2 
DISL,ioos:station:DISL:MBLA:1,2013-07-01T01:05:00Z,30.4367,-88.0117,0.5,29.67,2 
DISL,ioos:station:DISL:MBLA:1,2013-07-01T01:07:00Z,30.4367,-88.0117,0.5,29.95,2 
DISL,ioos:station:DISL:MBLA:1,2013-07-01T01:10:00Z,30.4367,-88.0117,0.5,30.5,2 
DISL,ioos:station:DISL:MBLA:1,2013-07-01T01:12:00Z,30.4367,-88.0117,0.5,31.26,2 
DISL,ioos:station:DISL:MBLA:1,2013-07-01T01:15:00Z,30.4367,-88.0117,0.5,32.03,2 
DISL,ioos:station:DISL:MBLA:1,2013-07-01T02:02:00Z,30.4367,-88.0117,0.5,29.4,2 
DISL,ioos:station:DISL:MBLA:1,2013-07-01T02:05:00Z,30.4367,-88.0117,0.5,29.73,2 
DISL,ioos:station:DISL:MBLA:1,2013-07-01T02:07:00Z,30.4367,-88.0117,0.5,30.1,2 
DISL,ioos:station:DISL:MBLA:1,2013-07-01T02:10:00Z,30.4367,-88.0117,0.5,30.82,2 
DISL,ioos:station:DISL:MBLA:1,2013-07-01T02:12:00Z,30.4367,-88.0117,0.5,31.49,2 
DISL,ioos:station:DISL:MBLA:1,2013-07-01T02:15:00Z,30.4367,-88.0117,0.5,31.71,2 
DISL,ioos:station:DISL:MBLA:1,2013-07-01T03:02:00Z,30.4367,-88.0117,0.5,29.24,2 
DISL,ioos:station:DISL:MBLA:1,2013-07-01T03:07:00Z,30.4367,-88.0117,0.5,30.17,2 
DISL,ioos:station:DISL:MBLA:1,2013-07-01T03:10:00Z,30.4367,-88.0117,0.5,30.41,2 
DISL,ioos:station:DISL:MBLA:1,2013-07-01T03:12:00Z,30.4367,-88.0117,0.5,30.97,2 
DISL,ioos:station:DISL:MBLA:1,2013-07-01T03:15:00Z,30.4367,-88.0117,0.5,31.1,2 
DISL,ioos:station:DISL:MBLA:1,2013-07-01T04:02:00Z,30.4367,-88.0117,0.5,28.57,2 
DISL,ioos:station:DISL:MBLA:1,2013-07-01T04:05:00Z,30.4367,-88.0117,0.5,29.6,2 
DISL,ioos:station:DISL:MBLA:1,2013-07-01T04:07:00Z,30.4367,-88.0117,0.5,29.97,2 
DISL,ioos:station:DISL:MBLA:1,2013-07-01T04:10:00Z,30.4367,-88.0117,0.5,30.37,2 
DISL,ioos:station:DISL:MBLA:1,2013-07-01T04:12:00Z,30.4367,-88.0117,0.5,30.4,2 
DISL,ioos:station:DISL:MBLA:1,2013-07-01T04:15:00Z,30.4367,-88.0117,0.5,30.41,2 
DISL,ioos:station:DISL:MBLA:1,2013-07-01T05:02:00Z,30.4367,-88.0117,0.5,28.33,2 
DISL,ioos:station:DISL:MBLA:1,2013-07-01T05:05:00Z,30.4367,-88.0117,0.5,29.6,2 
DISL,ioos:station:DISL:MBLA:1,2013-07-01T05:07:00Z,30.4367,-88.0117,0.5,29.89,2 
DISL,ioos:station:DISL:MBLA:1,2013-07-01T05:10:00Z,30.4367,-88.0117,0.5,30.01,2 
DISL,ioos:station:DISL:MBLA:1,2013-07-01T05:12:00Z,30.4367,-88.0117,0.5,30.04,2 
DISL,ioos:station:DISL:MBLA:1,2013-07-01T05:15:00Z,30.4367,-88.0117,0.5,30.03,2 
DISL,ioos:station:DISL:MBLA:1,2013-07-01T06:02:00Z,30.4367,-88.0117,0.5,29.77,2 
DISL,ioos:station:DISL:MBLA:1,2013-07-01T06:05:00Z,30.4367,-88.0117,0.5,29.67,2 
DISL,ioos:station:DISL:MBLA:1,2013-07-01T06:07:00Z,30.4367,-88.0117,0.5,29.76,2 
DISL,ioos:station:DISL:MBLA:1,2013-07-01T06:10:00Z,30.4367,-88.0117,0.5,29.86,2 
DISL,ioos:station:DISL:MBLA:1,2013-07-01T06:12:00Z,30.4367,-88.0117,0.5,29.89,2 
DISL,ioos:station:DISL:MBLA:1,2013-07-01T06:15:00Z,30.4367,-88.0117,0.5,29.88,2 
DISL,ioos:station:DISL:MBLA:1,2013-07-01T07:02:00Z,30.4367,-88.0117,0.5,28.88,2 
DISL,ioos:station:DISL:MBLA:1,2013-07-01T07:07:00Z,30.4367,-88.0117,0.5,29.8,2 
DISL,ioos:station:DISL:MBLA:1,2013-07-01T07:10:00Z,30.4367,-88.0117,0.5,29.78,2 
DISL,ioos:station:DISL:MBLA:1,2013-07-01T07:12:00Z,30.4367,-88.0117,0.5,29.76,2 
DISL,ioos:station:DISL:MBLA:1,2013-07-01T07:15:00Z,30.4367,-88.0117,0.5,29.75,2 
DISL,ioos:station:DISL:MBLA:1,2013-07-01T08:02:00Z,30.4367,-88.0117,0.5,28.57,2 
DISL,ioos:station:DISL:MBLA:1,2013-07-01T08:05:00Z,30.4367,-88.0117,0.5,29.65,2 
DISL,ioos:station:DISL:MBLA:1,2013-07-01T08:07:00Z,30.4367,-88.0117,0.5,29.7,2 
DISL,ioos:station:DISL:MBLA:1,2013-07-01T08:10:00Z,30.4367,-88.0117,0.5,29.7,2 
DISL,ioos:station:DISL:MBLA:1,2013-07-01T08:12:00Z,30.4367,-88.0117,0.5,29.68,2 
DISL,ioos:station:DISL:MBLA:1,2013-07-01T08:15:00Z,30.4367,-88.0117,0.5,29.66,2 
DISL,ioos:station:DISL:MBLA:1,2013-07-01T09:02:00Z,30.4367,-88.0117,0.5,28.8,2 
DISL,ioos:station:DISL:MBLA:1,2013-07-01T09:05:00Z,30.4367,-88.0117,0.5,29.35,2 
DISL,ioos:station:DISL:MBLA:1,2013-07-01T09:07:00Z,30.4367,-88.0117,0.5,29.64,2 
DISL,ioos:station:DISL:MBLA:1,2013-07-01T09:10:00Z,30.4367,-88.0117,0.5,29.64,2 
DISL,ioos:station:DISL:MBLA:1,2013-07-01T09:12:00Z,30.4367,-88.0117,0.5,29.57,2 
DISL,ioos:station:DISL:MBLA:1,2013-07-01T09:15:00Z,30.4367,-88.0117,0.5,29.54,2 
DISL,ioos:station:DISL:MBLA:1,2013-07-01T10:02:00Z,30.4367,-88.0117,0.5,29.07,2 
DISL,ioos:station:DISL:MBLA:1,2013-07-01T10:05:00Z,30.4367,-88.0117,0.5,29.62,2 
DISL,ioos:station:DISL:MBLA:1,2013-07-01T10:07:00Z,30.4367,-88.0117,0.5,29.56,2 
DISL,ioos:station:DISL:MBLA:1,2013-07-01T10:10:00Z,30.4367,-88.0117,0.5,29.52,2 
DISL,ioos:station:DISL:MBLA:1,2013-07-01T10:13:00Z,30.4367,-88.0117,0.5,29.44,2 
DISL,ioos:station:DISL:MBLA:1,2013-07-01T10:15:00Z,30.4367,-88.0117,0.5,29.42,2 
DISL,ioos:station:DISL:MBLA:1,2013-07-01T11:02:00Z,30.4367,-88.0117,0.5,28.32,2 
DISL,ioos:station:DISL:MBLA:1,2013-07-01T11:05:00Z,30.4367,-88.0117,0.5,29.58,2 
DISL,ioos:station:DISL:MBLA:1,2013-07-01T11:07:00Z,30.4367,-88.0117,0.5,29.52,2 
DISL,ioos:station:DISL:MBLA:1,2013-07-01T11:10:00Z,30.4367,-88.0117,0.5,29.42,2 
DISL,ioos:station:DISL:MBLA:1,2013-07-01T11:12:00Z,30.4367,-88.0117,0.5,29.34,2 
DISL,ioos:station:DISL:MBLA:1,2013-07-01T11:15:00Z,30.4367,-88.0117,0.5,29.32,2 
DISL,ioos:station:DISL:MBLA:1,2013-07-01T12:02:00Z,30.4367,-88.0117,0.5,28.21,2 
DISL,ioos:station:DISL:MBLA:1,2013-07-01T12:05:00Z,30.4367,-88.0117,0.5,29.44,2 
DISL,ioos:station:DISL:MBLA:1,2013-07-01T12:07:00Z,30.4367,-88.0117,0.5,29.4,2 
DISL,ioos:station:DISL:MBLA:1,2013-07-01T12:10:00Z,30.4367,-88.0117,0.5,29.32,2 
DISL,ioos:station:DISL:MBLA:1,2013-07-01T12:12:00Z,30.4367,-88.0117,0.5,29.23,2 
DISL,ioos:station:DISL:MBLA:1,2013-07-01T12:15:00Z,30.4367,-88.0117,0.5,29.21,2 
DISL,ioos:station:DISL:MBLA:1,2013-07-01T13:03:00Z,30.4367,-88.0117,0.5,28.98,2 
DISL,ioos:station:DISL:MBLA:1,2013-07-01T13:05:00Z,30.4367,-88.0117,0.5,29.27,2 
DISL,ioos:station:DISL:MBLA:1,2013-07-01T13:08:00Z,30.4367,-88.0117,0.5,29.24,2 
DISL,ioos:station:DISL:MBLA:1,2013-07-01T13:10:00Z,30.4367,-88.0117,0.5,29.17,2 
DISL,ioos:station:DISL:MBLA:1,2013-07-01T13:13:00Z,30.4367,-88.0117,0.5,29.16,2 
DISL,ioos:station:DISL:MBLA:1,2013-07-01T13:15:00Z,30.4367,-88.0117,0.5,29.14,2 
DISL,ioos:station:DISL:MBLA:1,2013-07-01T14:02:00Z,30.4367,-88.0117,0.5,28.68,2 
DISL,ioos:station:DISL:MBLA:1,2013-07-01T14:05:00Z,30.4367,-88.0117,0.5,29.21,2 
DISL,ioos:station:DISL:MBLA:1,2013-07-01T14:08:00Z,30.4367,-88.0117,0.5,29.21,2 
DISL,ioos:station:DISL:MBLA:1,2013-07-01T14:10:00Z,30.4367,-88.0117,0.5,29.2,2 
DISL,ioos:station:DISL:MBLA:1,2013-07-01T14:13:00Z,30.4367,-88.0117,0.5,29.19,2 
DISL,ioos:station:DISL:MBLA:1,2013-07-01T14:15:00Z,30.4367,-88.0117,0.5,29.19,2 
DISL,ioos:station:DISL:MBLA:1,2013-07-01T15:03:00Z,30.4367,-88.0117,0.5,29.17,2 
DISL,ioos:station:DISL:MBLA:1,2013-07-01T15:05:00Z,30.4367,-88.0117,0.5,29.22,2 
DISL,ioos:station:DISL:MBLA:1,2013-07-01T15:08:00Z,30.4367,-88.0117,0.5,29.23,2 
DISL,ioos:station:DISL:MBLA:1,2013-07-01T15:10:00Z,30.4367,-88.0117,0.5,29.27,2 
DISL,ioos:station:DISL:MBLA:1,2013-07-01T15:13:00Z,30.4367,-88.0117,0.5,29.28,2 
DISL,ioos:station:DISL:MBLA:1,2013-07-01T15:16:00Z,30.4367,-88.0117,0.5,29.32,2 
DISL,ioos:station:DISL:MBLA:1,2013-07-01T16:03:00Z,30.4367,-88.0117,0.5,28.05,2 
DISL,ioos:station:DISL:MBLA:1,2013-07-01T16:05:00Z,30.4367,-88.0117,0.5,28.26,2 
DISL,ioos:station:DISL:MBLA:1,2013-07-01T16:08:00Z,30.4367,-88.0117,0.5,28.44,2 
DISL,ioos:station:DISL:MBLA:1,2013-07-01T16:09:00Z,30.4367,-88.0117,0.5,28.95,2 
DISL,ioos:station:DISL:MBLA:1,2013-07-01T16:10:00Z,30.4367,-88.0117,0.5,28.51,2 
DISL,ioos:station:DISL:MBLA:1,2013-07-01T16:12:00Z,30.4367,-88.0117,0.5,28.61,2 
DISL,ioos:station:DISL:MBLA:1,2013-07-01T16:15:00Z,30.4367,-88.0117,0.5,28.67,2 
DISL,ioos:station:DISL:MBLA:1,2013-07-01T16:22:00Z,30.4367,-88.0117,0.5,28.02,2 
DISL,ioos:station:DISL:MBLA:1,2013-07-01T16:25:00Z,30.4367,-88.0117,0.5,28.36,2 
DISL,ioos:station:DISL:MBLA:1,2013-07-01T16:27:00Z,30.4367,-88.0117,0.5,28.36,2 
DISL,ioos:station:DISL:MBLA:1,2013-07-01T16:30:00Z,30.4367,-88.0117,0.5,28.6,2 
DISL,ioos:station:DISL:MBLA:1,2013-07-01T16:32:00Z,30.4367,-88.0117,0.5,28.62,2 
DISL,ioos:station:DISL:MBLA:1,2013-07-01T16:35:00Z,30.4367,-88.0117,0.5,28.62,2 
DISL,ioos:station:DISL:MBLA:1,2013-07-01T17:02:00Z,30.4367,-88.0117,0.5,26.5,2 
DISL,ioos:station:DISL:MBLA:1,2013-07-01T17:03:00Z,30.4367,-88.0117,0.5,26.96,2 
DISL,ioos:station:DISL:MBLA:1,2013-07-01T17:08:00Z,30.4367,-88.0117,0.5,28.45,2 
DISL,ioos:station:DISL:MBLA:1,2013-07-01T17:10:00Z,30.4367,-88.0117,0.5,28.63,2 
DISL,ioos:station:DISL:MBLA:1,2013-07-01T17:13:00Z,30.4367,-88.0117,0.5,28.66,2 
DISL,ioos:station:DISL:MBLA:1,2013-07-01T17:16:00Z,30.4367,-88.0117,0.5,28.67,2 
DISL,ioos:station:DISL:MBLA:1,2013-07-01T18:03:00Z,30.4367,-88.0117,0.5,27.22,2 
DISL,ioos:station:DISL:MBLA:1,2013-07-01T18:05:00Z,30.4367,-88.0117,0.5,28.32,2 
DISL,ioos:station:DISL:MBLA:1,2013-07-01T18:08:00Z,30.4367,-88.0117,0.5,28.45,2 
DISL,ioos:station:DISL:MBLA:1,2013-07-01T18:10:00Z,30.4367,-88.0117,0.5,28.83,2 
DISL,ioos:station:DISL:MBLA:1,2013-07-01T18:13:00Z,30.4367,-88.0117,0.5,28.87,2 
DISL,ioos:station:DISL:MBLA:1,2013-07-01T18:15:00Z,30.4367,-88.0117,0.5,28.92,2 
DISL,ioos:station:DISL:MBLA:1,2013-07-01T19:03:00Z,30.4367,-88.0117,0.5,27.11,2 
DISL,ioos:station:DISL:MBLA:1,2013-07-01T19:05:00Z,30.4367,-88.0117,0.5,28.45,2 
DISL,ioos:station:DISL:MBLA:1,2013-07-01T19:08:00Z,30.4367,-88.0117,0.5,28.69,2 
DISL,ioos:station:DISL:MBLA:1,2013-07-01T19:10:00Z,30.4367,-88.0117,0.5,28.87,2 
DISL,ioos:station:DISL:MBLA:1,2013-07-01T19:13:00Z,30.4367,-88.0117,0.5,28.9,2 
DISL,ioos:station:DISL:MBLA:1,2013-07-01T19:15:00Z,30.4367,-88.0117,0.5,28.87,2 
DISL,ioos:station:DISL:MBLA:1,2013-07-01T20:02:00Z,30.4367,-88.0117,0.5,27.71,2 
DISL,ioos:station:DISL:MBLA:1,2013-07-01T20:05:00Z,30.4367,-88.0117,0.5,28.66,2 
DISL,ioos:station:DISL:MBLA:1,2013-07-01T20:07:00Z,30.4367,-88.0117,0.5,28.78,2 
DISL,ioos:station:DISL:MBLA:1,2013-07-01T20:10:00Z,30.4367,-88.0117,0.5,28.83,2 
DISL,ioos:station:DISL:MBLA:1,2013-07-01T20:13:00Z,30.4367,-88.0117,0.5,28.85,2 
DISL,ioos:station:DISL:MBLA:1,2013-07-01T20:16:00Z,30.4367,-88.0117,0.5,28.87,2 
DISL,ioos:station:DISL:MBLA:1,2013-07-01T21:02:00Z,30.4367,-88.0117,0.5,27.73,2 
DISL,ioos:station:DISL:MBLA:1,2013-07-01T21:05:00Z,30.4367,-88.0117,0.5,27.84,2 
DISL,ioos:station:DISL:MBLA:1,2013-07-01T21:08:00Z,30.4367,-88.0117,0.5,28.65,2 
DISL,ioos:station:DISL:MBLA:1,2013-07-01T21:10:00Z,30.4367,-88.0117,0.5,28.92,2 
DISL,ioos:station:DISL:MBLA:1,2013-07-01T21:13:00Z,30.4367,-88.0117,0.5,28.93,2 
DISL,ioos:station:DISL:MBLA:1,2013-07-01T21:15:00Z,30.4367,-88.0117,0.5,28.92,2 
DISL,ioos:station:DISL:MBLA:1,2013-07-01T22:03:00Z,30.4367,-88.0117,0.5,27.79,2 
DISL,ioos:station:DISL:MBLA:1,2013-07-01T22:05:00Z,30.4367,-88.0117,0.5,28.46,2 
DISL,ioos:station:DISL:MBLA:1,2013-07-01T22:08:00Z,30.4367,-88.0117,0.5,28.77,2 
DISL,ioos:station:DISL:MBLA:1,2013-07-01T22:11:00Z,30.4367,-88.0117,0.5,28.82,2 
DISL,ioos:station:DISL:MBLA:1,2013-07-01T22:13:00Z,30.4367,-88.0117,0.5,28.82,2 
DISL,ioos:station:DISL:MBLA:1,2013-07-01T22:16:00Z,30.4367,-88.0117,0.5,28.81,2 
DISL,ioos:station:DISL:MBLA:1,2013-07-01T23:02:00Z,30.4367,-88.0117,0.5,27.94,2 
DISL,ioos:station:DISL:MBLA:1,2013-07-01T23:05:00Z,30.4367,-88.0117,0.5,28.76,2 
DISL,ioos:station:DISL:MBLA:1,2013-07-01T23:07:00Z,30.4367,-88.0117,0.5,28.8,2 
DISL,ioos:station:DISL:MBLA:1,2013-07-01T23:10:00Z,30.4367,-88.0117,0.5,28.82,2 
DISL,ioos:station:DISL:MBLA:1,2013-07-01T23:13:00Z,30.4367,-88.0117,0.5,28.8,2 
DISL,ioos:station:DISL:MBLA:1,2013-07-01T23:15:00Z,30.4367,-88.0117,0.5,28.8,2 
DISL,ioos:station:DISL:MBLA:1,2013-07-04T00:02:00Z,30.4367,-88.0117,0.5,28.21,2 
DISL,ioos:station:DISL:MBLA:1,2013-07-04T00:05:00Z,30.4367,-88.0117,0.5,28.75,2 
DISL,ioos:station:DISL:MBLA:1,2013-07-04T00:07:00Z,30.4367,-88.0117,0.5,28.75,2 
DISL,ioos:station:DISL:MBLA:1,2013-07-04T00:10:00Z,30.4367,-88.0117,0.5,28.73,2 
DISL,ioos:station:DISL:MBLA:1,2013-07-04T00:13:00Z,30.4367,-88.0117,0.5,28.72,2 
DISL,ioos:station:DISL:MBLA:1,2013-07-04T00:15:00Z,30.4367,-88.0117,0.5,28.71,2 
DISL,ioos:station:DISL:MBLA:1,2013-07-04T01:02:00Z,30.4367,-88.0117,0.5,27.46,2 
DISL,ioos:station:DISL:MBLA:1,2013-07-04T01:05:00Z,30.4367,-88.0117,0.5,28.62,2 
DISL,ioos:station:DISL:MBLA:1,2013-07-04T01:07:00Z,30.4367,-88.0117,0.5,28.63,2 
DISL,ioos:station:DISL:MBLA:1,2013-07-04T01:10:00Z,30.4367,-88.0117,0.5,28.63,2 
DISL,ioos:station:DISL:MBLA:1,2013-07-04T01:12:00Z,30.4367,-88.0117,0.5,28.61,2 
DISL,ioos:station:DISL:MBLA:1,2013-07-04T01:14:00Z,30.4367,-88.0117,0.5,28.6,2 
DISL,ioos:station:DISL:MBLA:1,2013-07-04T02:02:00Z,30.4367,-88.0117,0.5,28.01,2 
DISL,ioos:station:DISL:MBLA:1,2013-07-04T02:05:00Z,30.4367,-88.0117,0.5,28.57,2 
DISL,ioos:station:DISL:MBLA:1,2013-07-04T02:07:00Z,30.4367,-88.0117,0.5,28.57,2 
DISL,ioos:station:DISL:MBLA:1,2013-07-04T02:10:00Z,30.4367,-88.0117,0.5,28.58,2 
DISL,ioos:station:DISL:MBLA:1,2013-07-04T02:12:00Z,30.4367,-88.0117,0.5,28.57,2 
DISL,ioos:station:DISL:MBLA:1,2013-07-04T02:15:00Z,30.4367,-88.0117,0.5,28.53,2 
DISL,ioos:station:DISL:MBLA:1,2013-07-04T03:02:00Z,30.4367,-88.0117,0.5,28.31,2 
DISL,ioos:station:DISL:MBLA:1,2013-07-04T03:07:00Z,30.4367,-88.0117,0.5,28.51,2 
DISL,ioos:station:DISL:MBLA:1,2013-07-04T03:10:00Z,30.4367,-88.0117,0.5,28.5,2 
DISL,ioos:station:DISL:MBLA:1,2013-07-04T03:12:00Z,30.4367,-88.0117,0.5,28.5,2 
DISL,ioos:station:DISL:MBLA:1,2013-07-04T03:15:00Z,30.4367,-88.0117,0.5,28.51,2 
DISL,ioos:station:DISL:MBLA:1,2013-07-04T04:02:00Z,30.4367,-88.0117,0.5,28.29,2 
DISL,ioos:station:DISL:MBLA:1,2013-07-04T04:05:00Z,30.4367,-88.0117,0.5,28.43,2 
DISL,ioos:station:DISL:MBLA:1,2013-07-04T04:07:00Z,30.4367,-88.0117,0.5,28.43,2 
DISL,ioos:station:DISL:MBLA:1,2013-07-04T04:10:00Z,30.4367,-88.0117,0.5,28.42,2 
DISL,ioos:station:DISL:MBLA:1,2013-07-04T04:12:00Z,30.4367,-88.0117,0.5,28.42,2 
DISL,ioos:station:DISL:MBLA:1,2013-07-04T04:15:00Z,30.4367,-88.0117,0.5,28.4,2 
DISL,ioos:station:DISL:MBLA:1,2013-07-04T05:02:00Z,30.4367,-88.0117,0.5,28.14,2 
DISL,ioos:station:DISL:MBLA:1,2013-07-04T05:05:00Z,30.4367,-88.0117,0.5,28.32,2 
DISL,ioos:station:DISL:MBLA:1,2013-07-04T05:07:00Z,30.4367,-88.0117,0.5,28.31,2 
DISL,ioos:station:DISL:MBLA:1,2013-07-04T05:10:00Z,30.4367,-88.0117,0.5,28.31,2 
DISL,ioos:station:DISL:MBLA:1,2013-07-04T05:12:00Z,30.4367,-88.0117,0.5,28.31,2 
DISL,ioos:station:DISL:MBLA:1,2013-07-04T05:15:00Z,30.4367,-88.0117,0.5,28.3,2 
DISL,ioos:station:DISL:MBLA:1,2013-07-04T06:02:00Z,30.4367,-88.0117,0.5,28.17,2 
DISL,ioos:station:DISL:MBLA:1,2013-07-04T06:05:00Z,30.4367,-88.0117,0.5,28.21,2 
DISL,ioos:station:DISL:MBLA:1,2013-07-04T06:07:00Z,30.4367,-88.0117,0.5,28.19,2 
DISL,ioos:station:DISL:MBLA:1,2013-07-04T06:10:00Z,30.4367,-88.0117,0.5,28.17,2 
DISL,ioos:station:DISL:MBLA:1,2013-07-04T06:12:00Z,30.4367,-88.0117,0.5,28.16,2 
DISL,ioos:station:DISL:MBLA:1,2013-07-04T06:15:00Z,30.4367,-88.0117,0.5,28.13,2 
DISL,ioos:station:DISL:MBLA:1,2013-07-04T07:02:00Z,30.4367,-88.0117,0.5,28.18,2 
DISL,ioos:station:DISL:MBLA:1,2013-07-04T07:07:00Z,30.4367,-88.0117,0.5,28.25,2 
DISL,ioos:station:DISL:MBLA:1,2013-07-04T07:10:00Z,30.4367,-88.0117,0.5,28.21,2 
DISL,ioos:station:DISL:MBLA:1,2013-07-04T07:12:00Z,30.4367,-88.0117,0.5,28.2,2 
DISL,ioos:station:DISL:MBLA:1,2013-07-04T07:14:00Z,30.4367,-88.0117,0.5,28.18,2 
DISL,ioos:station:DISL:MBLA:1,2013-07-04T08:02:00Z,30.4367,-88.0117,0.5,28.29,2 
DISL,ioos:station:DISL:MBLA:1,2013-07-04T08:05:00Z,30.4367,-88.0117,0.5,28.33,2 
DISL,ioos:station:DISL:MBLA:1,2013-07-04T08:07:00Z,30.4367,-88.0117,0.5,28.26,2 
DISL,ioos:station:DISL:MBLA:1,2013-07-04T08:10:00Z,30.4367,-88.0117,0.5,28.19,2 
DISL,ioos:station:DISL:MBLA:1,2013-07-04T08:12:00Z,30.4367,-88.0117,0.5,28.13,2 
DISL,ioos:station:DISL:MBLA:1,2013-07-04T08:14:00Z,30.4367,-88.0117,0.5,28.19,2 
DISL,ioos:station:DISL:MBLA:1,2013-07-04T09:02:00Z,30.4367,-88.0117,0.5,27.75,2 
DISL,ioos:station:DISL:MBLA:1,2013-07-04T09:05:00Z,30.4367,-88.0117,0.5,28.09,2 
DISL,ioos:station:DISL:MBLA:1,2013-07-04T09:07:00Z,30.4367,-88.0117,0.5,28.13,2 
DISL,ioos:station:DISL:MBLA:1,2013-07-04T09:10:00Z,30.4367,-88.0117,0.5,28.09,2 
DISL,ioos:station:DISL:MBLA:1,2013-07-04T09:12:00Z,30.4367,-88.0117,0.5,28.01,2 
DISL,ioos:station:DISL:MBLA:1,2013-07-04T09:14:00Z,30.4367,-88.0117,0.5,27.94,2 
DISL,ioos:station:DISL:MBLA:1,2013-07-04T10:02:00Z,30.4367,-88.0117,0.5,28.0,2 
DISL,ioos:station:DISL:MBLA:1,2013-07-04T10:05:00Z,30.4367,-88.0117,0.5,28.04,2 
DISL,ioos:station:DISL:MBLA:1,2013-07-04T10:07:00Z,30.4367,-88.0117,0.5,27.97,2 
DISL,ioos:station:DISL:MBLA:1,2013-07-04T10:10:00Z,30.4367,-88.0117,0.5,27.98,2 
DISL,ioos:station:DISL:MBLA:1,2013-07-04T10:12:00Z,30.4367,-88.0117,0.5,27.94,2 
DISL,ioos:station:DISL:MBLA:1,2013-07-04T10:15:00Z,30.4367,-88.0117,0.5,27.91,2 
DISL,ioos:station:DISL:MBLA:1,2013-07-04T11:02:00Z,30.4367,-88.0117,0.5,28.08,2 
DISL,ioos:station:DISL:MBLA:1,2013-07-04T11:05:00Z,30.4367,-88.0117,0.5,27.94,2 
DISL,ioos:station:DISL:MBLA:1,2013-07-04T11:07:00Z,30.4367,-88.0117,0.5,27.89,2 
DISL,ioos:station:DISL:MBLA:1,2013-07-04T11:10:00Z,30.4367,-88.0117,0.5,27.85,2 
DISL,ioos:station:DISL:MBLA:1,2013-07-04T11:12:00Z,30.4367,-88.0117,0.5,27.82,2 
DISL,ioos:station:DISL:MBLA:1,2013-07-04T11:14:00Z,30.4367,-88.0117,0.5,27.81,2 
DISL,ioos:station:DISL:MBLA:1,2013-07-04T12:02:00Z,30.4367,-88.0117,0.5,28.02,2 
DISL,ioos:station:DISL:MBLA:1,2013-07-04T12:05:00Z,30.4367,-88.0117,0.5,27.88,2 
DISL,ioos:station:DISL:MBLA:1,2013-07-04T12:07:00Z,30.4367,-88.0117,0.5,27.81,2 
DISL,ioos:station:DISL:MBLA:1,2013-07-04T12:10:00Z,30.4367,-88.0117,0.5,27.74,2 
DISL,ioos:station:DISL:MBLA:1,2013-07-04T12:12:00Z,30.4367,-88.0117,0.5,27.69,2 
DISL,ioos:station:DISL:MBLA:1,2013-07-04T12:15:00Z,30.4367,-88.0117,0.5,27.67,2 
DISL,ioos:station:DISL:MBLA:1,2013-07-04T13:02:00Z,30.4367,-88.0117,0.5,27.9,2 
DISL,ioos:station:DISL:MBLA:1,2013-07-04T13:05:00Z,30.4367,-88.0117,0.5,27.75,2 
DISL,ioos:station:DISL:MBLA:1,2013-07-04T13:07:00Z,30.4367,-88.0117,0.5,27.57,2 
DISL,ioos:station:DISL:MBLA:1,2013-07-04T13:10:00Z,30.4367,-88.0117,0.5,27.51,2 
DISL,ioos:station:DISL:MBLA:1,2013-07-04T13:12:00Z,30.4367,-88.0117,0.5,27.47,2 
DISL,ioos:station:DISL:MBLA:1,2013-07-04T13:15:00Z,30.4367,-88.0117,0.5,27.47,2 
DISL,ioos:station:DISL:MBLA:1,2013-07-04T14:02:00Z,30.4367,-88.0117,0.5,27.81,2 
DISL,ioos:station:DISL:MBLA:1,2013-07-04T14:05:00Z,30.4367,-88.0117,0.5,27.78,2 
DISL,ioos:station:DISL:MBLA:1,2013-07-04T14:08:00Z,30.4367,-88.0117,0.5,27.72,2 
DISL,ioos:station:DISL:MBLA:1,2013-07-04T14:10:00Z,30.4367,-88.0117,0.5,27.6,2 
DISL,ioos:station:DISL:MBLA:1,2013-07-04T14:12:00Z,30.4367,-88.0117,0.5,27.63,2 
DISL,ioos:station:DISL:MBLA:1,2013-07-04T14:15:00Z,30.4367,-88.0117,0.5,27.67,2 
DISL,ioos:station:DISL:MBLA:1,2013-07-04T15:02:00Z,30.4367,-88.0117,0.5,27.8,2 
DISL,ioos:station:DISL:MBLA:1,2013-07-04T15:05:00Z,30.4367,-88.0117,0.5,27.77,2 
DISL,ioos:station:DISL:MBLA:1,2013-07-04T15:08:00Z,30.4367,-88.0117,0.5,27.71,2 
DISL,ioos:station:DISL:MBLA:1,2013-07-04T15:10:00Z,30.4367,-88.0117,0.5,27.74,2 
DISL,ioos:station:DISL:MBLA:1,2013-07-04T15:13:00Z,30.4367,-88.0117,0.5,27.75,2 
DISL,ioos:station:DISL:MBLA:1,2013-07-04T15:16:00Z,30.4367,-88.0117,0.5,27.81,2 
DISL,ioos:station:DISL:MBLA:1,2013-07-04T16:02:00Z,30.4367,-88.0117,0.5,27.82,2 
DISL,ioos:station:DISL:MBLA:1,2013-07-04T16:05:00Z,30.4367,-88.0117,0.5,27.84,2 
DISL,ioos:station:DISL:MBLA:1,2013-07-04T16:08:00Z,30.4367,-88.0117,0.5,27.69,2 
DISL,ioos:station:DISL:MBLA:1,2013-07-04T16:10:00Z,30.4367,-88.0117,0.5,27.73,2 
DISL,ioos:station:DISL:MBLA:1,2013-07-04T16:13:00Z,30.4367,-88.0117,0.5,27.8,2 
DISL,ioos:station:DISL:MBLA:1,2013-07-04T16:15:00Z,30.4367,-88.0117,0.5,28.01,2 
DISL,ioos:station:DISL:MBLA:1,2013-07-04T17:02:00Z,30.4367,-88.0117,0.5,27.82,2 
DISL,ioos:station:DISL:MBLA:1,2013-07-04T17:08:00Z,30.4367,-88.0117,0.5,27.79,2 
DISL,ioos:station:DISL:MBLA:1,2013-07-04T17:10:00Z,30.4367,-88.0117,0.5,27.8,2 
DISL,ioos:station:DISL:MBLA:1,2013-07-04T17:13:00Z,30.4367,-88.0117,0.5,28.09,2 
DISL,ioos:station:DISL:MBLA:1,2013-07-04T17:15:00Z,30.4367,-88.0117,0.5,28.45,2 
DISL,ioos:station:DISL:MBLA:1,2013-07-04T18:02:00Z,30.4367,-88.0117,0.5,27.67,2 
DISL,ioos:station:DISL:MBLA:1,2013-07-04T18:05:00Z,30.4367,-88.0117,0.5,27.81,2 
DISL,ioos:station:DISL:MBLA:1,2013-07-04T18:08:00Z,30.4367,-88.0117,0.5,27.87,2 
DISL,ioos:station:DISL:MBLA:1,2013-07-04T18:10:00Z,30.4367,-88.0117,0.5,28.1,2 
DISL,ioos:station:DISL:MBLA:1,2013-07-04T18:13:00Z,30.4367,-88.0117,0.5,28.6,2 
DISL,ioos:station:DISL:MBLA:1,2013-07-04T18:15:00Z,30.4367,-88.0117,0.5,28.58,2 
DISL,ioos:station:DISL:MBLA:1,2013-07-04T19:02:00Z,30.4367,-88.0117,0.5,27.66,2 
DISL,ioos:station:DISL:MBLA:1,2013-07-04T19:05:00Z,30.4367,-88.0117,0.5,27.92,2 
DISL,ioos:station:DISL:MBLA:1,2013-07-04T19:08:00Z,30.4367,-88.0117,0.5,28.0,2 
DISL,ioos:station:DISL:MBLA:1,2013-07-04T19:10:00Z,30.4367,-88.0117,0.5,28.38,2 
DISL,ioos:station:DISL:MBLA:1,2013-07-04T19:13:00Z,30.4367,-88.0117,0.5,28.59,2 
DISL,ioos:station:DISL:MBLA:1,2013-07-04T19:15:00Z,30.4367,-88.0117,0.5,28.62,2 
DISL,ioos:station:DISL:MBLA:1,2013-07-04T20:02:00Z,30.4367,-88.0117,0.5,27.62,2 
DISL,ioos:station:DISL:MBLA:1,2013-07-04T20:05:00Z,30.4367,-88.0117,0.5,27.94,2 
DISL,ioos:station:DISL:MBLA:1,2013-07-04T20:08:00Z,30.4367,-88.0117,0.5,28.22,2 
DISL,ioos:station:DISL:MBLA:1,2013-07-04T20:10:00Z,30.4367,-88.0117,0.5,28.53,2 
DISL,ioos:station:DISL:MBLA:1,2013-07-04T20:13:00Z,30.4367,-88.0117,0.5,28.77,2 
DISL,ioos:station:DISL:MBLA:1,2013-07-04T20:15:00Z,30.4367,-88.0117,0.5,28.78,2 
DISL,ioos:station:DISL:MBLA:1,2013-07-04T21:02:00Z,30.4367,-88.0117,0.5,27.67,2 
DISL,ioos:station:DISL:MBLA:1,2013-07-04T21:05:00Z,30.4367,-88.0117,0.5,28.09,2 
DISL,ioos:station:DISL:MBLA:1,2013-07-04T21:08:00Z,30.4367,-88.0117,0.5,28.42,2 
DISL,ioos:station:DISL:MBLA:1,2013-07-04T21:10:00Z,30.4367,-88.0117,0.5,28.65,2 
DISL,ioos:station:DISL:MBLA:1,2013-07-04T21:13:00Z,30.4367,-88.0117,0.5,28.68,2 
DISL,ioos:station:DISL:MBLA:1,2013-07-04T21:15:00Z,30.4367,-88.0117,0.5,28.68,2 
DISL,ioos:station:DISL:MBLA:1,2013-07-04T22:03:00Z,30.4367,-88.0117,0.5,28.17,2 
DISL,ioos:station:DISL:MBLA:1,2013-07-04T22:05:00Z,30.4367,-88.0117,0.5,28.46,2 
DISL,ioos:station:DISL:MBLA:1,2013-07-04T22:09:00Z,30.4367,-88.0117,0.5,28.56,2 
DISL,ioos:station:DISL:MBLA:1,2013-07-04T22:11:00Z,30.4367,-88.0117,0.5,28.56,2 
DISL,ioos:station:DISL:MBLA:1,2013-07-04T22:13:00Z,30.4367,-88.0117,0.5,28.56,2 
DISL,ioos:station:DISL:MBLA:1,2013-07-04T22:16:00Z,30.4367,-88.0117,0.5,28.57,2 
DISL,ioos:station:DISL:MBLA:1,2013-07-04T23:03:00Z,30.4367,-88.0117,0.5,27.84,2 
DISL,ioos:station:DISL:MBLA:1,2013-07-04T23:05:00Z,30.4367,-88.0117,0.5,28.4,2 
DISL,ioos:station:DISL:MBLA:1,2013-07-04T23:08:00Z,30.4367,-88.0117,0.5,28.47,2 
DISL,ioos:station:DISL:MBLA:1,2013-07-04T23:11:00Z,30.4367,-88.0117,0.5,28.48,2 
DISL,ioos:station:DISL:MBLA:1,2013-07-04T23:13:00Z,30.4367,-88.0117,0.5,28.48,2 
DISL,ioos:station:DISL:MBLA:1,2013-07-04T23:16:00Z,30.4367,-88.0117,0.5,28.46,2 
DISL,ioos:station:DISL:MBLA:1,2013-07-05T00:05:00Z,30.4367,-88.0117,0.5,28.33,2 
DISL,ioos:station:DISL:MBLA:1,2013-07-05T00:08:00Z,30.4367,-88.0117,0.5,28.35,2 
DISL,ioos:station:DISL:MBLA:1,2013-07-05T00:10:00Z,30.4367,-88.0117,0.5,28.35,2 
DISL,ioos:station:DISL:MBLA:1,2013-07-05T00:13:00Z,30.4367,-88.0117,0.5,28.35,2 
DISL,ioos:station:DISL:MBLA:1,2013-07-05T00:15:00Z,30.4367,-88.0117,0.5,28.34,2 